CAPE
1644 1769 1301 1482 1382 1553 1641 1359 1475 1279 1204 1268 1271 1312 1087 1457 760 792 828 732 693 759 151 164 106 1 18 53 30 0 6 4 4 15 15 9 7 12 8 3 2 16
1438 1473 1692 1558 1564 1363 1512 1429 1331 1228 1286 1738 1134 1539 1271 1258 1092 1088 1022 806 694 542 724 270 129 207 0 0 232 1 11 222 6 16 26 24 398 19 15 7 9 6
1065 1166 1186 1346 1542 1391 1291 1661 1441 1501 1521 1536 1439 1360 1462 1169 1341 1190 1187 1102 793 909 713 786 604 384 254 2 0 121 18 3 90 51 3 1 8 11 29 53 12 20
1226 1269 1049 853 1304 1080 1305 1430 1759 1865 1715 1732 1660 1723 1587 1355 1279 1234 1270 1023 1071 1058 826 620 621 783 483 230 77 61 170 68 1 20 76 11 44 21 38 50 26 21
1086 1364 1370 1358 1289 1148 1664 1234 1368 1502 1345 1465 1210 1350 1462 1592 1300 1062 1158 1129 1222 1088 1051 863 602 580 572 596 175 269 33 21 3 19 14 37 118 105 30 25 28 35
877 763 898 941 1143 1164 1455 1243 1184 1256 1180 1339 1120 1548 1242 1273 1242 1052 1066 1003 876 951 844 806 804 710 560 499 615 185 184 236 168 53 16 21 43 22 18 44 46 22
1356 1574 1506 1479 1410 1509 1609 1460 1477 1327 1384 1377 1230 1360 1201 1117 1128 1015 859 970 714 761 534 734 859 930 641 604 609 676 212 98 50 0 2 8 24 22 28 24 18 5
1531 1569 1684 1425 1463 1543 1408 1427 1610 1707 1603 1426 1301 1360 1310 1056 823 908 751 890 739 663 672 634 684 586 846 631 554 573 523 404 136 49 0 0 0 4 9 20 68 17
1751 1670 1517 1634 1624 1950 1806 1719 1656 1608 1532 1660 1601 1481 1477 1257 1123 1186 1082 918 768 756 720 586 624 586 788 756 581 510 431 459 238 83 15 8 13 2 0 4 7 13
1632 1726 1761 1772 1776 1914 2024 1940 1776 1769 1431 1397 1265 1508 1218 1397 1234 814 550 872 1055 923 714 707 584 729 964 703 530 438 410 428 455 136 60 15 0 0 0 2 3 25
1868 1928 1990 2142 2145 2097 2070 1978 1823 1711 1587 1212 1291 1453 1276 1244 1232 1132 1096 773 723 531 423 340 391 470 504 747 664 717 587 534 481 317 181 46 4 2 93 0 1 37
1814 1853 1845 1819 1884 2058 2108 2064 2026 1677 1470 1602 1208 1247 1401 1563 1442 1266 858 688 540 435 395 554 446 404 342 316 454 805 630 455 369 288 255 138 73 25 0 0 0 0
1369 1558 2120 1987 2116 2146 2135 1954 1828 1798 1639 1222 1411 1451 1486 1526 1612 1262 1253 1056 800 827 792 516 415 181 383 660 627 583 621 540 592 551 372 252 170 115 74 30 4 8
1417 1514 1514 1883 2029 2003 1825 1818 1789 1751 1728 1595 1429 1371 1354 1174 1092 1120 1100 1087 892 767 742 835 894 680 545 512 530 527 626 674 594 587 553 448 475 346 219 140 70 18
1415 1283 1588 1510 1537 1542 1794 1872 1906 1730 1766 1520 1506 1644 1624 1470 1304 994 877 945 965 884 884 936 1020 696 443 429 674 597 586 713 613 518 560 539 513 535 483 398 297 203
1222 1091 1315 1501 1176 1545 1771 1948 1840 1807 1909 1866 1709 1417 1405 1542 1245 1090 889 863 694 473 500 770 1066 1175 981 539 282 534 734 768 732 659 602 504 488 471 460 435 347 290
778 1154 1562 1259 1586 1227 1090 1268 1106 1338 1389 1571 1813 1303 1327 1442 1293 1144 1094 1105 818 396 403 588 876 1095 666 514 382 0 235 384 529 680 708 615 424 383 363 402 402 362
908 548 574 1116 956 802 907 768 716 751 771 901 1035 1504 1606 1546 1532 1436 1361 1232 998 920 882 863 967 704 507 141 141 148 0 128 243 225 141 140 271 351 360 314 289 312
435 383 374 419 421 441 575 449 384 477 878 928 919 1003 1145 1286 1494 1700 1570 1370 1249 1086 1108 1037 605 341 262 332 180 144 171 110 7 346 198 80 73 38 22 18 40 207
125 203 168 222 155 156 243 219 436 776 793 769 725 675 713 850 1036 1161 1168 992 875 884 1354 998 773 675 541 458 466 346 256 208 182 87 130 179 39 80 107 153 165 139
79 52 76 65 56 94 285 310 414 590 621 757 793 834 829 822 759 696 748 801 850 1035 1660 946 1471 775 462 358 319 299 259 229 43 21 2 59 45 235 304 211 254 265
14 30 53 27 52 98 120 136 229 426 466 562 406 479 575 584 597 509 520 567 582 668 1291 1500 1090 675 375 315 316 347 328 345 314 273 346 376 237 56 320 247 273 225
4 20 31 23 33 46 46 103 118 123 155 159 144 164 264 356 288 209 317 428 611 752 1148 632 546 508 301 318 306 280 276 292 446 624 529 540 504 365 287 98 321 406
28 12 20 0 12 17 34 73 81 92 126 132 126 83 139 70 23 30 172 249 317 576 929 752 258 114 56 0 5 74 105 95 142 120 193 270 225 251 254 276 308 703
42 43 25 8 8 39 28 7 14 45 73 88 49 26 60 8 1 0 14 72 146 546 826 655 612 182 96 36 36 0 0 1 5 15 42 89 83 94 134 134 179 434
0 0 0 0 0 1 0 0 0 0 3 2 0 0 2 5 9 2 12 28 96 160 756 469 631 112 0 0 0 0 0 1 9 14 17 10 7 6 3 11 71 143
Wind_Speed
15 15 13 14 15 15 15 16 16 15 16 16 17 16 16 15 16 16 17 18 16 16 18 15 17 nan nan nan nan nan nan nan nan nan nan nan nan nan nan nan nan nan
15 16 16 15 14 16 16 16 16 15 14 16 17 17 17 17 17 17 17 17 17 16 16 18 17 18 nan nan 18 nan nan 17 nan nan nan nan 18 nan nan nan nan nan
15 13 16 17 16 16 16 16 17 17 17 17 16 15 16 17 17 18 18 17 16 17 17 15 17 17 19 nan nan 15 nan nan nan nan nan nan nan nan nan nan nan nan
15 16 15 14 16 16 16 16 17 19 19 20 20 19 19 19 19 18 19 18 18 16 17 18 16 16 16 18 nan nan 17 nan nan nan nan nan nan nan nan nan nan nan
15 16 17 18 19 19 19 19 19 19 18 18 19 19 19 19 20 19 20 20 20 19 19 20 20 18 16 15 18 20 nan nan nan nan nan nan 21 22 nan nan nan nan
16 15 16 15 15 16 18 18 17 16 16 16 17 17 19 19 20 20 21 22 22 23 22 22 21 21 20 18 17 20 20 21 20 nan nan nan nan nan nan nan nan nan
16 16 16 18 19 19 19 19 18 18 18 19 19 19 19 18 19 21 22 23 23 24 24 24 25 24 24 23 20 21 22 nan nan nan nan nan nan nan nan nan nan nan
14 15 16 16 16 16 17 16 18 19 20 20 20 20 20 20 20 19 19 20 20 20 22 23 25 26 27 27 25 21 21 23 24 nan nan nan nan nan nan nan nan nan
17 17 18 18 18 18 18 19 20 19 20 20 21 21 21 21 20 19 20 22 22 21 21 22 23 25 27 28 28 27 24 23 25 nan nan nan nan nan nan nan nan nan
17 18 18 18 19 20 21 21 21 22 22 21 21 21 21 21 21 22 21 21 22 23 23 24 25 25 27 29 29 29 27 24 26 27 nan nan nan nan nan nan nan nan
18 18 19 20 20 21 22 22 23 24 24 23 23 24 24 23 23 24 24 25 25 26 25 24 25 26 27 30 31 30 30 28 25 25 28 nan nan nan nan nan nan nan
20 21 22 22 22 23 23 24 24 24 25 25 25 24 25 25 25 25 25 25 25 25 25 26 27 28 28 28 29 32 32 31 30 28 28 28 nan nan nan nan nan nan
21 22 23 23 23 24 24 24 24 25 25 25 26 25 25 26 26 26 28 29 29 28 28 27 27 27 28 29 29 31 33 34 32 31 32 32 31 29 nan nan nan nan
23 24 25 25 26 26 26 26 26 26 26 26 27 27 27 27 27 27 27 28 29 28 27 27 28 30 32 33 33 32 32 33 34 34 32 33 34 33 31 29 nan nan
26 26 28 28 28 27 27 27 28 28 29 29 29 30 30 30 29 29 28 28 30 30 29 30 31 31 33 35 36 37 37 36 36 36 36 34 34 33 32 31 30 29
26 28 28 28 27 26 27 28 29 31 31 31 31 31 31 32 32 30 29 30 31 31 30 31 32 33 35 37 37 39 40 39 38 38 37 36 35 34 32 31 30 30
28 31 29 26 27 27 26 27 29 30 31 32 34 35 33 32 33 33 33 32 32 33 33 34 35 35 34 37 38 nan 39 40 40 38 38 37 37 36 34 33 32 31
33 32 29 27 27 27 30 30 30 31 30 31 30 31 33 34 34 35 35 36 36 35 35 36 37 34 32 33 33 33 nan 34 36 38 38 37 36 36 35 34 33 34
35 35 30 27 26 27 30 31 32 31 30 28 28 29 31 32 35 37 37 37 37 36 36 38 41 31 31 41 41 34 26 27 nan 30 32 nan nan nan nan nan nan 35
35 35 30 28 28 30 32 34 36 34 31 29 30 31 33 34 35 36 37 37 37 35 40 44 40 37 33 35 38 36 31 27 29 nan 30 39 nan nan 35 33 33 35
nan nan nan nan nan nan 38 40 40 37 33 31 32 33 33 35 36 37 38 39 38 40 45 41 42 37 34 34 31 30 34 37 nan nan nan nan nan 32 29 32 37 41
nan nan nan nan nan nan 45 44 42 39 36 34 32 34 35 37 40 41 42 42 41 40 43 44 43 42 38 35 35 39 42 42 41 42 41 37 36 nan 32 33 42 47
nan nan nan nan nan nan nan 44 42 40 37 36 34 34 36 40 44 44 46 46 45 44 49 45 43 37 35 41 44 45 42 39 39 41 43 41 42 42 40 nan 42 49
nan nan nan nan nan nan nan nan nan nan 37 37 36 nan 40 nan nan nan 49 48 48 48 48 50 51 48 nan nan nan nan 44 nan 43 43 43 43 42 42 43 45 45 42
nan nan nan nan nan nan nan nan nan nan nan nan nan nan nan nan nan nan nan nan 51 52 54 52 55 57 nan nan nan nan nan nan nan nan nan nan nan nan 45 45 46 47
nan nan nan nan nan nan nan nan nan nan nan nan nan nan nan nan nan nan nan nan nan 54 58 57 60 60 nan nan nan nan nan nan nan nan nan nan nan nan nan nan nan 46
Wind_Direction
14 10 14 17 14 11 10 13 11 16 13 13 11 12 13 7 4 3 359 0 6 356 354 349 343 nan nan nan nan nan nan nan nan nan nan nan nan nan nan nan nan nan
13 15 12 14 16 20 16 12 14 15 14 12 12 8 8 5 2 0 358 358 356 1 353 349 347 343 nan nan 335 nan nan 332 nan nan nan nan 317 nan nan nan nan nan
12 17 14 16 16 18 15 10 9 9 11 12 10 4 6 360 355 352 351 352 354 352 351 348 345 344 341 nan nan 338 nan nan nan nan nan nan nan nan nan nan nan nan
12 12 16 22 14 11 5 8 7 6 6 5 5 1 358 355 350 351 349 352 350 349 348 347 346 347 342 341 nan nan 340 nan nan nan nan nan nan nan nan nan nan nan
12 10 12 13 12 7 2 5 6 2 1 358 356 355 353 352 349 352 351 352 349 352 350 349 347 347 346 343 338 334 nan nan nan nan nan nan 332 328 nan nan nan nan
13 14 11 8 4 6 1 1 358 355 354 351 349 346 349 351 349 350 351 351 352 352 352 350 348 345 345 347 343 336 333 335 335 nan nan nan nan nan nan nan nan nan
8 6 8 4 4 1 357 353 351 349 350 349 348 349 346 349 352 352 353 351 355 352 352 347 347 344 342 345 345 338 339 nan nan nan nan nan nan nan nan nan nan nan
3 1 1 359 357 353 349 349 348 346 346 345 347 348 348 349 351 352 347 346 349 351 347 347 344 344 342 339 341 342 341 334 335 nan nan nan nan nan nan nan nan nan
357 357 356 355 353 350 347 346 345 344 343 344 343 344 344 343 341 339 341 341 343 343 346 344 343 341 339 337 340 341 341 335 332 nan nan nan nan nan nan nan nan nan
353 352 351 349 349 348 347 345 342 339 338 338 338 334 335 332 332 333 336 335 334 336 339 340 341 338 336 338 337 335 334 336 330 331 nan nan nan nan nan nan nan nan
347 347 345 345 344 341 342 341 339 337 334 334 331 330 330 329 328 328 328 331 335 338 338 337 335 335 336 334 334 331 331 327 327 327 326 nan nan nan nan nan nan nan
341 341 341 340 340 338 337 335 332 331 331 329 328 328 325 323 323 324 324 327 328 328 328 328 329 330 330 329 329 329 329 328 328 327 321 317 nan nan nan nan nan nan
332 332 331 331 330 329 329 328 328 327 326 325 322 322 321 320 320 321 321 324 325 325 326 327 328 324 321 321 323 323 324 325 323 322 322 319 316 313 nan nan nan nan
329 327 325 327 326 325 325 325 324 323 322 323 322 322 322 322 321 319 315 314 314 317 318 318 318 318 318 320 319 318 316 316 317 317 315 313 313 314 312 310 nan nan
329 329 327 328 328 328 328 326 325 324 322 322 323 322 321 320 319 319 321 318 315 313 316 315 318 320 318 315 313 314 313 312 312 313 312 312 311 309 309 309 308 307
327 324 323 322 325 328 327 326 325 323 322 322 322 320 318 319 321 320 319 317 315 315 315 314 312 312 316 323 320 311 308 309 309 310 310 309 307 305 305 304 304 303
330 323 319 318 315 315 319 320 314 312 315 317 317 317 321 322 321 321 320 316 316 315 317 316 313 310 314 318 322 nan 313 310 311 309 308 307 306 307 305 305 303 302
317 315 312 306 306 314 318 316 316 315 314 314 314 317 318 318 318 318 317 318 317 318 317 317 315 311 312 306 314 319 nan 308 309 313 314 308 303 305 306 304 304 301
316 315 306 293 294 305 313 316 315 310 304 304 308 311 314 316 317 316 315 316 317 316 316 307 299 304 295 285 289 295 300 303 nan 309 305 nan nan nan nan nan nan 294
313 306 297 286 288 300 311 315 313 307 305 310 315 316 316 315 315 314 312 310 310 311 308 304 313 313 308 300 296 304 309 304 300 nan 295 288 nan nan 298 292 285 277
nan nan nan nan nan nan 309 309 309 308 304 309 315 318 317 315 313 311 311 310 310 308 309 314 310 308 308 306 303 292 292 297 nan nan nan nan nan 284 284 285 287 280
nan nan nan nan nan nan 302 304 304 303 299 300 310 318 321 321 318 314 310 308 306 307 307 306 310 311 306 300 292 294 296 297 294 294 295 294 294 nan 290 288 291 295
nan nan nan nan nan nan nan 302 300 298 295 293 302 315 323 322 316 312 309 307 306 304 307 309 305 299 290 286 286 287 291 292 294 295 295 294 291 289 285 nan 282 286
nan nan nan nan nan nan nan nan nan nan 293 289 296 nan 316 nan nan nan 309 307 306 304 302 304 304 302 nan nan nan nan 301 nan 290 289 287 285 283 281 280 279 278 275
nan nan nan nan nan nan nan nan nan nan nan nan nan nan nan nan nan nan nan nan 307 305 300 301 303 303 nan nan nan nan nan nan nan nan nan nan nan nan 280 278 276 275
nan nan nan nan nan nan nan nan nan nan nan nan nan nan nan nan nan nan nan nan nan 303 303 301 301 300 nan nan nan nan nan nan nan nan nan nan nan nan nan nan nan 275